Regional Weather Roundup
Issued by NWS Charleston, SC

Current Version | Previous Version | Text Only | Print | Product List | Glossary Off
Versions: 1 2 3 4 5 6 7 8 9 10 11 12 13 14 15 16 17 18 19 20 21 22 23 24 25 26 27 28 29 30 31 32 33 34 35 36 37 38 39 40 41 42 43 44 45 46 47 48 49 50
000 ASUS42 KCHS 020327 RWRCHS REGIONAL WEATHER ROUNDUP NATIONAL WEATHER SERVICE CHARLESTON SC 1100 PM EDT MON JUN 01 2015 NOTE: "FAIR" INDICATES FEW OR NO CLOUDS BELOW 12,000 FEET WITH NO SIGNIFICANT WEATHER AND/OR OBSTRUCTIONS TO VISIBILITY. NOT ALL STATIONS ARE QUALITY CONTROLLED BY THE NATIONAL WEATHER SERVICE. USE DATA WITH CAUTION...ESPECIALLY DEWPOINT OBSERVATIONS. SCZ027-030-031-034>040-042>050-020400- ...SOUTHEAST SOUTH CAROLINA... CITY SKY/WX TMP DP RH WIND PRES REMARKS N CHARLESTON CLOUDY 74 68 81 SW7 30.06R WATERFRONT PAR N/A 78 72 81 S7 30.04R MOUNT PLEASANT FAIR 73 70 88 CALM 30.06S JOHNS ISLAND CLEAR 77 72 83 CALM 30.07S PINOPOLIS N/A 79 70 73 CALM 29.98R MONCKS CORNER FAIR 73 68 83 CALM 30.07R SUMMERVILLE FAIR 72 70 94 CALM 30.08R BEAUFORT MCAS CLOUDY 76 69 79 W3 30.07R BEAUFORT ARPT FAIR 77 72 83 CALM 30.06S HILTON HEAD IS CLOUDY 79 72 78 S5 30.07F WALTERBORO CLOUDY 72 68 88 S3 30.07F ALLENDALE MOCLDY 70 68 94 CALM 30.07S ...SOUTHERN MIDLANDS AND PEE DEE... CITY SKY/WX TMP DP RH WIND PRES REMARKS GEORGETOWN NOT AVBL KINGSTREE NOT AVBL ORANGEBURG CLOUDY 70 67 90 SW5 30.06R BARNWELL RAIN 72 70 94 S5 30.08S AIKEN FAIR 68 64 88 CALM 30.08S MANNING FAIR 75 66 73 SW7 30.06R COLUMBIA CLOUDY 72 67 84 SE5 30.04F SUMTER CLOUDY 73 65 77 SW5 30.04R FLORENCE CLOUDY 70 68 93 E6 30.05S MYRTLE BEACH MOCLDY 79 70 73 SW3 30.08R N MYRTLE BEACH MOCLDY 78 71 79 S12 30.05S $$ GAZ063-065-086>088-099>101-113>116-118-119-134>141-150-020400- ...SOUTHEAST GEORGIA... CITY SKY/WX TMP DP RH WIND PRES REMARKS SAVANNAH ARPT MOCLDY 73 68 84 W7 30.06S HUNTER AAF MOCLDY 75 70 83 W6 30.03F FORT STEWART CLOUDY 71 68 90 CALM 30.03F STATESBORO CLOUDY 70 32 24 CALM 30.05F SYLVANIA DRIZZLE 71 71 99 CALM 30.07S CLAXTON FAIR 70 70 100 CALM 30.05F ...CSRA...CENTRAL AND FAR SOUTHEAST GEORGIA... CITY SKY/WX TMP DP RH WIND PRES REMARKS THOMSON CLOUDY 69 69 98 S5 30.11R AUGUSTA-BUSH RAIN 69 67 93 S8 30.04F FOG AUGUSTA-DANIEL LGT RAIN 71 67 87 W3 30.07R SWAINSBORO FAIR N/A N/A N/A N3 30.07S VIDALIA CLOUDY 68 68 100 CALM 30.07R EASTMAN CLOUDY 69 69 100 CALM 30.09R HAZLEHURST FAIR 69 69 100 CALM 30.05R ALMA PTCLDY 68 67 96 CALM 30.04S WAYCROSS PTCLDY 69 69 100 CALM 30.04R JESUP FAIR 72 70 94 CALM 30.05S BAXLEY FAIR 70 68 94 CALM 30.05S BRUNSWICK CLOUDY 72 68 88 NW3 30.06R SAINT SIMONS NOT AVBL $$ SCZ027-028-034-036>038-045-046-048>050-GAZ119-141-020400- ...LAKE AND SUPPLEMENTAL COASTAL OBSERVATIONS... STATION/POSITION TIME TEMP WIND PRES WAVE SWELL AIR SEA DIR/SP/G HT/PER HT/PER/DIR (UTC) (F) (DEG/KT/KT) (MB) (FT/S) (FT/S/D) UPR LAKE MARION NOT AVBL WINYAH BAY 0200 78 230/ 5 1017.0R LAKE MURRAY 0200 75 240/ 5/ 9 1017.3R ACE BASIN NERRS NOT AVBL FORT PULASKI 0300 78 81 200/ 4/ 7 1018.2F SAPELO ISLAND 0300 78 220/ 4 1017.0F $$ ANZ835-935-AMZ111-154-330-350-352-354-370-450-454-472-020400- ...C-MAN AND BUOY OBSERVATIONS... STATION/POSITION TIME TEMP WIND PRES WAVE SWELL AIR SEA DIR/SP/G HT/PER HT/PER/DIR (UTC) (F) (DEG/KT/KT) (MB) (FT/S) (FT/S/D) BUOY 41004 0250 80 80 210/ 10/ 10 1017.7R 3/ 9 3/ 9 BUOY 41008 0250 78 79 200/ 10/ 12 1017.6S 2/ 9 2/110/ 9 FOLLY BEACH CMAN 0300 78 200/ 10/ 12 1018.0R CAPERS NEARSHORE 0208 78 220/ 8/ 10 1017.8R FRIPP NEARSHORE 0200 78 190/ 12/ 12 1017.4R STATION/POSITION TIME TEMP WIND PRES WAVE SWELL AIR SEA DIR/SP/G HT/PER HT/PER/DIR (UTC) (F) (DEG/KT/KT) (MB) (FT/S) (FT/S/D) 5E ST. MARYS GA 0221 80 N/A 2/10 FRYING PAN BUOY 0250 79 77 200/ 10/ 12 1018.6R 3/ 8 3/ 90/ 8 BUOY 41025 0250 78 79 190/ 14/ 16 1018.1F 3/ 9 3/ 70/ 9 CAPE LOOKOUT NC 0300 76 190/ 8/ 10 1017.9R BUOY 41002 0250 76 77 CALM 1019.0R 4/ 8 3/ 90/ 8 BUOY 41010 0220 79 81 150/ 8/ 8 1018.7R ST AUGUSTINE FL 0300 78 79 190/ 3/ 3 1018.7F $$

USA.gov is the U.S. government's official web portal to all federal, state and local government web resources and services.